Location: Bukovany
(49.8234°N, 14.6297°E)
Time: 16:41:21
(UTC+00:00)

COSMOS 2406 - Pass Details

Date: 17 November 2025
Orbit: 845 x 859 km, 71.0° (Epoch: 12 December)

Event Time Altitude Azimuth Distance (km) Brightness Sun altitude
Rises 18:19:06 0° 327° (NNW) 3,417 6.9 -29.4°
Reaches altitude 10° 18:21:39 10° 321° (NW) 2,479 6.1 -29.8°
Maximum altitude 18:27:01 45° 251° (WSW) 1,144 4.1 -30.6°
Enters shadow 18:29:08 31° 202° (SSW) 1,435 4.4 -31.0°
